Flag for Germany Weather past 2 weeks in Rheda-Wiedenbrück, North Rhine-Westphalia, Germany

Now
68 °F

Light rain. Clear.


Feels Like: 68 °F
Forecast: 59 / 70 °F
Wind: 16 mph from East

Location: Paderborn / Lippstadt

Current Time: Jul 24, 2014 at 6:35:01 PM

Latest Report: Jul 24, 2014 at 5:50 PM


Visibility: N/A

Pressure: 30.01 "Hg

Humidity: 56%

Dew point: 52 °F

Location of Rheda-WiedenbrückLocation

Historic Weather in Rheda-Wiedenbrück — Graph

°F

Rheda-Wiedenbrück temperature yesterday

Maximum temperature yesterday: 81 °F (at 3:50 PM)
Minimum temperature yesterday: 61 °F (at 3:50 AM)
Average temperature yesterday: 70 °F

Past Weeks' High & Low Weather Summary

 TemperatureHumidityPressure
High88 °F (Jul 19, 1:50 PM)100% (Jul 9, 5:20 PM)30.21 "Hg (Jul 9, 5:20 PM)
Low54 °F (Jul 10, 4:20 AM)27% (Jul 19, 1:20 PM)29.65 "Hg (Jul 9, 5:20 PM)
Average68 °F70%29.98 "Hg
* Reported Jul 9 5:20 PM — Jul 24 5:20 PM, Rheda-Wiedenbrück, Weather by CustomWeather, © 2014

Note: Actual official high and low records may vary slightly from our data, if they occured in-between our weather recording intervals... More about our weather records

Advertising

Rheda-Wiedenbrück weather history for previous 24 hours

 ConditionsComfort  
Time TempWeatherWind HumidityBarometerVisibility
5:20 PM
Jul 24
68 °FScattered showers. Clear.8 mph73%30.01 "HgN/A
4:50 PM64 °FThundershowers. Scattered clouds.7 mph73%30.01 "HgN/A
4:20 PM64 °FThunderstorms. Scattered clouds.5 mph68%30.01 "HgN/A
3:50 PM66 °FThunderstorms. Scattered clouds.14 mph60%30.01 "HgN/A
3:20 PM64 °FThundershowers. Scattered clouds.3 mph88%30.01 "HgN/A
2:50 PM64 °FThunderstorms. Scattered clouds.6 mph60%30.01 "Hg3 mi
2:20 PM75 °FStrong thunderstorms. Scattered clouds.6 mph47%30.01 "Hg3 mi
1:50 PM72 °FThunderstorms. Scattered clouds.12 mph53%30.01 "HgN/A
1:20 PM73 °FPassing clouds.8 mph44%30.01 "HgN/A
12:50 PM73 °FSunny.10 mph47%30.01 "Hg10 mi
12:20 PM72 °FSunny.10 mph50%30.01 "Hg10 mi
11:50 AM72 °FSunny.9 mph47%30.01 "Hg10 mi
11:20 AM72 °FPassing clouds.13 mph53%30.04 "HgN/A
10:50 AM70 °FSunny.7 mph53%30.04 "Hg10 mi
10:20 AM70 °FSunny.9 mph50%30.04 "Hg10 mi
9:50 AM68 °FPassing clouds.9 mph56%30.04 "HgN/A
9:20 AM66 °FPassing clouds.9 mph60%30.01 "HgN/A
8:50 AM66 °FSunny.8 mph64%30.04 "Hg10 mi
8:20 AM64 °FPassing clouds.5 mph68%30.04 "HgN/A
7:50 AM63 °FPassing clouds.3 mph73%30.01 "HgN/A
7:20 AM61 °FSunny.3 mph77%30.01 "Hg10 mi
6:50 AM57 °FSunny.6 mph88%30.01 "Hg10 mi
6:20 AM55 °FClear.2 mph88%30.01 "Hg10 mi
5:50 AM55 °FPassing clouds.3 mph94%30.01 "HgN/A
5:20 AM55 °FClear.2 mph88%30.01 "Hg10 mi
4:50 AM55 °FClear.1 mph82%30.01 "Hg10 mi
4:20 AM57 °FClear.2 mph82%30.01 "Hg10 mi
3:50 AM59 °FClear.2 mph82%30.04 "Hg10 mi
3:20 AM59 °FClear.1 mph82%30.04 "Hg10 mi
2:50 AM63 °FClear.5 mph68%30.04 "Hg10 mi
2:20 AM63 °FClear.5 mph68%30.04 "Hg10 mi
1:50 AM63 °FClear.5 mph68%30.04 "Hg10 mi
1:20 AM63 °FClear.6 mph68%30.04 "Hg10 mi
12:50 AM64 °FClear.6 mph64%30.04 "Hg10 mi
12:20 AM64 °FClear.5 mph64%30.04 "Hg10 mi
11:50 PM
Jul 23
64 °FClear.5 mph68%30.04 "Hg10 mi
11:20 PM64 °FClear.3 mph68%30.04 "Hg10 mi
10:50 PM64 °FPassing clouds.3 mph68%30.04 "HgN/A
10:20 PM64 °FSunny.5 mph68%30.07 "Hg10 mi
9:50 PM70 °FSunny.5 mph57%30.04 "Hg10 mi
9:20 PM68 °FSunny.5 mph64%30.04 "Hg10 mi
8:50 PM72 °FSunny.7 mph57%30.04 "Hg10 mi
8:20 PM75 °FSunny.6 mph54%30.04 "Hg10 mi
7:50 PM75 °FSunny.9 mph50%30.04 "Hg10 mi
7:20 PM77 °FSunny.8 mph47%30.04 "Hg10 mi
6:50 PM77 °FPassing clouds.8 mph47%30.04 "HgN/A
6:20 PM79 °FPassing clouds.8 mph45%30.04 "HgN/A
Weather by CustomWeather, © 2014

See weather overviewHow to use our weather pages